Hourly Weather Bіlozіrka (Barmashove)

Today, 1 October, Thursday

Time Temperature Precipitation Wind Pressure Humidity
00:00 +16°C° 0 mm 3 mps 749 mmHg 77%
01:00 +16°C° 0 mm 3 mps 749 mmHg 78%
02:00 +15°C° 0 mm 2 mps 749 mmHg 79%
03:00 +14°C° 0 mm 3 mps 750 mmHg 80%
04:00 +14°C° 0 mm 3 mps 750 mmHg 82%
05:00 +14°C° 0 mm 3 mps 750 mmHg 84%
06:00 +16°C° 0 mm 3 mps 750 mmHg 81%
07:00 +15°C° 0 mm 4 mps 750 mmHg 79%
08:00 +16°C° 0 mm 5 mps 750 mmHg 76%
09:00 +19°C° 0.3 mm 5 mps 750 mmHg 69%
10:00 +20°C° 0.3 mm 5 mps 750 mmHg 62%
11:00 +21°C° 0.3 mm 5 mps 750 mmHg 55%
12:00 +22°C° 0.5 mm 5 mps 750 mmHg 54%
13:00 +22°C° 0.5 mm 6 mps 750 mmHg 53%
14:00 +22°C° 0.5 mm 6 mps 750 mmHg 51%
15:00 +21°C° 0.5 mm 5 mps 750 mmHg 56%
16:00 +20°C° 0.5 mm 4 mps 751 mmHg 60%
17:00 +19°C° 0.5 mm 3 mps 751 mmHg 65%
18:00 +18°C° 0.1 mm 3 mps 751 mmHg 70%
19:00 +17°C° 0.1 mm 3 mps 751 mmHg 74%
20:00 +16°C° 0.1 mm 3 mps 752 mmHg 79%
21:00 +16°C° 0.1 mm 3 mps 752 mmHg 80%
22:00 +16°C° 0.1 mm 3 mps 752 mmHg 81%
23:00 +16°C° 0.1 mm 3 mps 752 mmHg 82%

Tomorrow, 2 October, Friday

Time Temperature Precipitation Wind Pressure Humidity
00:00 +15°C° 0.1 mm 4 mps 752 mmHg 81%
01:00 +15°C° 0.1 mm 4 mps 752 mmHg 80%
02:00 +17°C° 0.1 mm 4 mps 752 mmHg 79%
03:00 +15°C° 0.2 mm 4 mps 752 mmHg 81%
04:00 +16°C° 0.2 mm 3 mps 753 mmHg 84%
05:00 +15°C° 0.2 mm 2 mps 753 mmHg 86%
06:00 +16°C° 0.3 mm 3 mps 753 mmHg 82%
07:00 +17°C° 0.3 mm 3 mps 753 mmHg 78%
08:00 +18°C° 0.3 mm 4 mps 753 mmHg 74%
09:00 +19°C° 0.2 mm 4 mps 754 mmHg 67%
10:00 +21°C° 0.2 mm 5 mps 754 mmHg 61%
11:00 +22°C° 0.2 mm 5 mps 754 mmHg 54%
12:00 +22°C° 0.1 mm 5 mps 754 mmHg 52%
13:00 +22°C° 0.1 mm 5 mps 754 mmHg 51%
14:00 +23°C° 0.1 mm 5 mps 754 mmHg 49%
15:00 +21°C° 0.1 mm 4 mps 755 mmHg 54%
16:00 +20°C° 0.1 mm 3 mps 755 mmHg 59%
17:00 +19°C° 0.1 mm 2 mps 755 mmHg 64%
18:00 +19°C° 0 mm 2 mps 755 mmHg 66%
19:00 +19°C° 0 mm 3 mps 756 mmHg 67%
20:00 +19°C° 0 mm 3 mps 756 mmHg 69%
21:00 +18°C° 0 mm 3 mps 756 mmHg 73%
22:00 +18°C° 0 mm 3 mps 756 mmHg 76%
23:00 +17°C° 0 mm 3 mps 756 mmHg 79%

Day after tomorrow, 3 October, Saturday

Time Temperature Precipitation Wind Pressure Humidity
00:00 +17°C° 0 mm 3 mps 756 mmHg 80%
01:00 +17°C° 0 mm 3 mps 757 mmHg 82%
02:00 +16°C° 0 mm 3 mps 757 mmHg 83%
03:00 +16°C° 0 mm 3 mps 757 mmHg 84%
04:00 +16°C° 0 mm 3 mps 757 mmHg 84%
05:00 +16°C° 0 mm 3 mps 757 mmHg 84%
06:00 +17°C° 0 mm 3 mps 757 mmHg 81%
07:00 +18°C° 0 mm 3 mps 757 mmHg 78%
08:00 +19°C° 0 mm 4 mps 758 mmHg 74%
09:00 +20°C° 0 mm 4 mps 758 mmHg 67%
10:00 +22°C° 0 mm 4 mps 758 mmHg 60%
11:00 +23°C° 0 mm 5 mps 758 mmHg 54%
12:00 +25°C° 0 mm 5 mps 758 mmHg 52%
13:00 +25°C° 0 mm 5 mps 758 mmHg 50%
14:00 +25°C° 0 mm 5 mps 758 mmHg 49%
15:00 +23°C° 0 mm 4 mps 758 mmHg 52%
16:00 +22°C° 0 mm 4 mps 758 mmHg 55%
17:00 +21°C° 0 mm 3 mps 758 mmHg 58%
18:00 +21°C° 0 mm 3 mps 758 mmHg 62%
19:00 +20°C° 0 mm 3 mps 758 mmHg 66%
20:00 +19°C° 0 mm 3 mps 758 mmHg 71%
21:00 +18°C° 0 mm 3 mps 758 mmHg 73%
22:00 +18°C° 0 mm 3 mps 758 mmHg 75%
23:00 +17°C° 0 mm 3 mps 758 mmHg 78%

4 October, Sunday

Time Temperature Precipitation Wind Pressure Humidity
00:00 +17°C° 0 mm 3 mps 758 mmHg 79%
01:00 +17°C° 0 mm 3 mps 758 mmHg 79%
02:00 +16°C° 0 mm 3 mps 758 mmHg 80%
03:00 +16°C° 0 mm 3 mps 758 mmHg 81%
04:00 +16°C° 0 mm 3 mps 758 mmHg 83%
05:00 +16°C° 0 mm 3 mps 758 mmHg 85%
06:00 +17°C° 0 mm 3 mps 758 mmHg 81%
07:00 +18°C° 0 mm 4 mps 758 mmHg 77%
08:00 +19°C° 0 mm 4 mps 758 mmHg 73%
09:00 +20°C° 0 mm 4 mps 758 mmHg 64%
10:00 +22°C° 0 mm 4 mps 758 mmHg 55%
11:00 +25°C° 0 mm 4 mps 758 mmHg 46%
12:00 +26°C° 0 mm 4 mps 758 mmHg 43%
13:00 +27°C° 0 mm 5 mps 758 mmHg 40%
14:00 +27°C° 0 mm 5 mps 758 mmHg 38%
15:00 +26°C° 0 mm 4 mps 758 mmHg 42%
16:00 +25°C° 0 mm 4 mps 758 mmHg 46%
17:00 +24°C° 0 mm 3 mps 757 mmHg 50%
18:00 +21°C° 0 mm 3 mps 758 mmHg 55%
19:00 +20°C° 0 mm 3 mps 758 mmHg 61%
20:00 +19°C° 0 mm 3 mps 758 mmHg 66%
21:00 +18°C° 0 mm 3 mps 758 mmHg 71%
22:00 +18°C° 0 mm 3 mps 758 mmHg 75%
23:00 +17°C° 0 mm 3 mps 758 mmHg 80%

5 October, Monday

Time Temperature Precipitation Wind Pressure Humidity
00:00 +17°C° 0 mm 3 mps 757 mmHg 83%
01:00 +17°C° 0 mm 3 mps 757 mmHg 86%
02:00 +16°C° 0 mm 3 mps 757 mmHg 89%
03:00 +16°C° 0 mm 3 mps 757 mmHg 89%
04:00 +16°C° 0 mm 3 mps 757 mmHg 90%
05:00 +16°C° 0 mm 3 mps 757 mmHg 90%
06:00 +17°C° 0 mm 4 mps 757 mmHg 84%
07:00 +17°C° 0 mm 5 mps 757 mmHg 78%
08:00 +19°C° 0 mm 5 mps 757 mmHg 72%
09:00 +21°C° 0 mm 6 mps 757 mmHg 63%
10:00 +23°C° 0 mm 6 mps 757 mmHg 54%
11:00 +26°C° 0 mm 6 mps 757 mmHg 45%
12:00 +27°C° 0 mm 6 mps 757 mmHg 41%
13:00 +28°C° 0 mm 6 mps 757 mmHg 38%
14:00 +29°C° 0 mm 6 mps 756 mmHg 34%
15:00 +27°C° 0 mm 6 mps 756 mmHg 38%
16:00 +26°C° 0 mm 5 mps 756 mmHg 42%
17:00 +25°C° 0 mm 4 mps 756 mmHg 46%
18:00 +22°C° 0 mm 4 mps 756 mmHg 52%
19:00 +21°C° 0 mm 4 mps 756 mmHg 58%
20:00 +20°C° 0 mm 5 mps 756 mmHg 64%
21:00 +19°C° 0 mm 5 mps 756 mmHg 67%
22:00 +19°C° 0 mm 5 mps 756 mmHg 71%
23:00 +17°C° 0 mm 5 mps 755 mmHg 75%

6 October, Tuesday

Time Temperature Precipitation Wind Pressure Humidity
00:00 +18°C° 0 mm 4 mps 755 mmHg 74%
01:00 +18°C° 0 mm 4 mps 755 mmHg 72%
02:00 +18°C° 0 mm 4 mps 755 mmHg 71%
03:00 +17°C° 0 mm 4 mps 755 mmHg 71%
04:00 +17°C° 0 mm 4 mps 755 mmHg 71%
05:00 +17°C° 0 mm 4 mps 755 mmHg 71%
06:00 +17°C° 0 mm 5 mps 755 mmHg 67%
07:00 +19°C° 0 mm 5 mps 755 mmHg 63%
08:00 +21°C° 0 mm 6 mps 755 mmHg 59%
09:00 +23°C° 0 mm 6 mps 754 mmHg 53%
10:00 +24°C° 0 mm 6 mps 754 mmHg 47%
11:00 +27°C° 0 mm 7 mps 754 mmHg 40%
12:00 +28°C° 0 mm 6 mps 754 mmHg 38%
13:00 +29°C° 0 mm 6 mps 754 mmHg 35%
14:00 +29°C° 0 mm 6 mps 753 mmHg 33%
15:00 +28°C° 0 mm 6 mps 753 mmHg 38%
16:00 +26°C° 0 mm 5 mps 753 mmHg 42%
17:00 +25°C° 0 mm 5 mps 753 mmHg 47%
18:00 +23°C° 0 mm 6 mps 752 mmHg 51%
19:00 +22°C° 0 mm 7 mps 752 mmHg 55%
20:00 +21°C° 0 mm 8 mps 752 mmHg 59%
21:00 +21°C° 0 mm 7 mps 752 mmHg 62%
22:00 +21°C° 0 mm 7 mps 752 mmHg 64%
23:00 +21°C° 0 mm 6 mps 751 mmHg 67%
Show more